Timestamp[UTC];2m Lufttemperatur [degC] (tas);Stations-Luftdruck [Pa] (ps);relative Luftfeuchtigkeit [%] (hurs);spezifische Luftfeuchtigkeit [kg/kg] (huss);Niederschlagsmenge [mm] (pr);Windgeschwindigkeit in 2m [m/s] (sfcWind);Windrichtung [deg];maximale Windgeschwindigkeit [m/s] (wsgsmax);u-Windkomponente [m/s] (uas);v-Windkomponente [m/s] (vas);Sonneneinstrahlung [W/m2];Blitzrate [n];Blitzentfernung [km];Bodenfeuchte in 5cm Tiefe [vol%];Bodenfeuchte in 15cm Tiefe [vol%];Bodenfeuchte in 30cm Tiefe [vol%];Bodenfeuchte in 60cm Tiefe [vol%];Bodentemperatur in 5cm Tiefe [degC];Bodentemperatur in 15cm Tiefe [degC];Bodentemperatur in 30cm Tiefe [degC];Bodentemperatur in 60cm Tiefe [degC];Matrixpotential in 30cm Tiefe [kPa];Bodenfeuchte aus CRNS [vol%] (mrso);Neutronen Anzahl [N/h]
2021-08-01 00:00:00;13,6;100382;92;0,009;0,0;0,4;97;0,9;0,28;0,02;0;0;0;21,3;26,4;30,9;34,2;17,2;18,1;18,4;18,4;-27,5;23,9;1499
2021-08-01 01:00:00;13,3;100375;93;0,0088;0,0;0,4;96;1,0;0,3;0,0;0;0;0;21,3;26,4;30,9;34,2;16,9;17,9;18,4;18,4;-27,5;23,7;1582
2021-08-01 02:00:00;13,9;100348;93;0,0092;0,0;0,8;305;1,4;0,43;-0,62;0;0;0;21,3;26,4;30,9;34,2;16,9;17,8;18,3;18,4;-27,4;23,8;1535
2021-08-01 03:00:00;13,8;100342;93;0,0091;0,0;0,3;177;0,7;0,24;-0,03;0;0;0;21,3;26,4;30,9;34,2;16,8;17,7;18,3;18,4;-27,5;24,1;1633
2021-08-01 04:00:00;13,2;100372;93;0,0088;0,0;0,5;240;0,9;0,31;-0,26;9;0;0;21,3;26,4;30,9;34,2;16,6;17,6;18,2;18,4;-27,4;24,3;1587
2021-08-01 05:00:00;13,5;100354;94;0,0091;0,0;0,3;274;0,8;0,25;-0,08;35;0;0;21,3;26,4;30,9;34,1;16,6;17,5;18,2;18,4;-27,4;24,1;1519
2021-08-01 06:00:00;15,4;100342;94;0,0102;0,0;0,3;328;1,0;0,26;-0,19;236;0;0;21,3;26,4;30,9;34,1;16,7;17,4;18,1;18,3;-27,4;24,1;1567
2021-08-01 07:00:00;17,6;100303;83;0,0104;0,0;0,9;300;2,4;0,46;-0,8;407;0;0;21,3;26,4;30,9;34,1;17,2;17,4;18,1;18,3;-27,6;24,0;1581
2021-08-01 08:00:00;19,2;100298;73;0,0101;0,0;1,0;291;2,4;0,36;-0,9;524;0;0;21,2;26,3;30,8;34,1;18,1;17,6;18,0;18,3;-27,9;24,3;1630
2021-08-01 09:00:00;19,3;100330;66;0,0092;0,0;1,2;296;3,2;0,54;-1,07;379;0;0;21,2;26,3;30,8;34,1;18,7;17,9;18,0;18,3;-28,2;24,4;1529
2021-08-01 10:00:00;19,0;100348;68;0,0092;0,0;1,5;295;3,6;0,62;-1,32;348;0;0;21,1;26,3;30,8;34,1;18,9;18,1;18,0;18,3;-28,3;24,3;1533
2021-08-01 11:00:00;19,8;100333;65;0,0093;0,0;1,5;295;4,1;0,67;-1,36;474;0;0;21,1;26,2;30,8;34,1;19,1;18,3;18,0;18,3;-28,4;24,5;1556
2021-08-01 12:00:00;21,1;100315;62;0,0097;0,0;1,5;290;4,5;0,5;-1,36;614;0;0;21,1;26,2;30,7;34,1;19,3;18,5;18,1;18,3;-28,7;24,6;1644
2021-08-01 13:00:00;20,8;100308;63;0,0097;0,0;1,4;298;4,1;0,64;-1,19;348;0;0;21,1;26,1;30,7;34,1;19,4;18,6;18,1;18,2;-28,8;24,5;1540
2021-08-01 14:00:00;21,0;100310;64;0,0099;0,24;1,6;296;5,0;0,7;-1,43;352;0;0;21,0;26,1;30,7;34,0;19,3;18,7;18,2;18,3;-28,8;24,3;1434
2021-08-01 15:00:00;17,1;100405;83;0,0101;1,41;1,7;305;4,6;1,01;-1,42;229;0;0;21,0;26,1;30,7;34,0;19,2;18,8;18,2;18,2;-28,7;24,2;1505
2021-08-01 16:00:00;18,4;100404;75;0,0099;0,0;1,5;298;4,1;0,72;-1,31;314;0;0;21,1;26,1;30,7;34,0;19,0;18,8;18,3;18,2;-28,5;24,3;1564
2021-08-01 17:00:00;18,5;100422;72;0,0094;0,0;1,1;300;3,4;0,56;-0,96;94;0;0;21,1;26,1;30,7;34,0;18,9;18,8;18,3;18,2;-28,5;24,4;1481
2021-08-01 18:00:00;17,7;100478;74;0,0093;0,0;1,0;308;2,9;0,65;-0,82;26;0;0;21,2;26,1;30,7;34,0;18,6;18,7;18,3;18,2;-28,5;24,2;1504
2021-08-01 19:00:00;17,0;100560;77;0,0093;0,0;0,8;300;2,2;0,4;-0,67;2;0;0;21,2;26,1;30,7;34,0;18,3;18,7;18,4;18,2;-28,5;24,4;1428
2021-08-01 20:00:00;16,5;100598;79;0,0092;0,0;0,7;300;1,7;0,37;-0,62;0;0;0;21,3;26,1;30,7;34,0;18,1;18,6;18,4;18,2;-28,5;24,4;1489
2021-08-01 21:00:00;15,9;100605;80;0,009;0,0;0,7;301;1,9;0,37;-0,6;0;0;0;21,3;26,1;30,7;34,0;17,9;18,4;18,4;18,2;-28,5;24,8;1566
2021-08-01 22:00:00;15,6;100640;81;0,009;0,0;0,6;305;1,6;0,37;-0,53;0;0;0;21,3;26,1;30,7;34,0;17,7;18,3;18,4;18,2;-28,4;25,0;1469
2021-08-01 23:00:00;15,4;100655;83;0,009;0,0;0,5;310;1,2;0,3;-0,37;0;0;0;21,4;26,1;30,7;34,0;17,6;18,2;18,4;18,2;-28,4;25,0;1527
2021-08-02 00:00:00;15,3;100660;86;0,0093;0,0;0,4;308;1,0;0,24;-0,3;0;0;0;21,4;26,1;30,7;34,0;17,4;18,1;18,4;18,2;-28,4;25,3;2172
2021-08-02 01:00:00;15,2;100670;89;0,0096;0,0;0,5;300;1,3;0,27;-0,45;0;0;0;21,4;26,1;30,7;34,0;17,4;18,0;18,3;18,2;-28,4;25,7;1614
2021-08-02 02:00:00;15,0;100668;91;0,0096;0,02;0,5;309;1,0;0,32;-0,39;0;0;0;21,4;26,1;30,7;34,0;17,4;18,0;18,3;18,2;-28,4;25,8;1506
2021-08-02 03:00:00;14,9;100677;93;0,0097;0,65;0,5;309;0,9;0,32;-0,4;0;0;0;21,4;26,1;30,7;34,0;17,3;17,9;18,2;18,2;-28,4;25,5;1551
2021-08-02 04:00:00;14,6;100710;95;0,0098;0,76;0,6;309;1,1;0,36;-0,44;6;0;0;21,4;26,1;30,7;34,0;17,2;17,8;18,2;18,2;-28,4;25,6;1496
2021-08-02 05:00:00;14,8;100725;96;0,0101;0,38;0,4;314;1,0;0,3;-0,3;46;0;0;21,5;26,1;30,7;34,0;17,3;17,8;18,2;18,2;-28,3;25,7;1539
2021-08-02 06:00:00;15,0;100750;96;0,0101;2,06;0,4;310;1,1;0,29;-0,34;52;0;0;21,8;26,1;30,7;34,0;17,3;17,8;18,1;18,2;-28,3;25,8;1449
2021-08-02 07:00:00;14,9;100777;97;0,0102;3,52;0,4;306;1,0;0,24;-0,32;56;0;0;25,3;26,1;30,7;33,9;17,3;17,7;18,1;18,2;-28,3;26,2;1490
2021-08-02 08:00:00;15,0;100788;97;0,0102;0,89;0,5;307;1,0;0,3;-0,39;120;0;0;28,0;26,2;30,7;33,9;17,3;17,7;18,1;18,2;-28,3;26,1;1431
2021-08-02 09:00:00;15,4;100800;97;0,0105;0,57;0,9;296;2,5;0,38;-0,78;244;0;0;28,1;26,4;30,7;33,9;17,6;17,7;18,0;18,2;-28,2;26,4;1365
2021-08-02 10:00:00;16,6;100790;92;0,0108;0,0;1,0;302;3,0;0,45;-0,81;513;0;0;28,2;26,6;30,7;33,9;18,0;17,8;18,0;18,2;-28,2;26,7;1465
2021-08-02 11:00:00;17,6;100773;84;0,0105;0,0;0,9;292;2,6;0,33;-0,86;379;0;0;28,0;26,8;30,7;33,9;18,4;17,9;18,0;18,2;-28,2;26,6;1394
2021-08-02 12:00:00;18,5;100760;81;0,0107;0,0;1,2;290;3,5;0,43;-1,13;673;0;0;27,7;27,0;30,7;33,9;18,8;18,1;18,0;18,2;-28,4;26,8;1430
2021-08-02 13:00:00;19,4;100750;76;0,0106;0,0;1,0;289;2,6;0,34;-0,92;539;0;0;27,5;27,2;30,6;33,9;18,9;18,3;18,0;18,2;-28,4;26,9;1433
2021-08-02 14:00:00;19,5;100740;71;0,01;0,0;1,1;292;2,8;0,41;-1,0;310;0;0;27,2;27,3;30,6;33,9;19,0;18,4;18,1;18,1;-28,4;27,1;1461
2021-08-02 15:00:00;17,4;100780;81;0,01;0,09;1,1;299;2,6;0,56;-0,97;211;0;0;27,1;27,4;30,6;33,9;18,8;18,5;18,1;18,2;-28,3;27,3;1457
2021-08-02 16:00:00;18,7;100768;74;0,0099;0,0;1,0;294;2,5;0,4;-0,91;206;0;0;27,0;27,5;30,7;33,9;18,7;18,5;18,1;18,1;-28,2;27,8;1471
2021-08-02 17:00:00;18,0;100800;71;0,0092;0,0;1,2;286;3,9;0,33;-1,19;141;0;0;26,8;27,6;30,7;33,9;18,5;18,5;18,2;18,1;-28,1;27,8;1440
2021-08-02 18:00:00;16,8;100820;71;0,0084;0,0;0,7;286;2,5;0,22;-0,71;44;0;0;26,7;27,7;30,7;33,9;18,2;18,5;18,2;18,1;-28,1;28,2;1341
2021-08-02 19:00:00;14,4;100870;81;0,0083;0,0;0,2;326;0,6;0,17;-0,12;3;0;0;26,6;27,7;30,7;33,9;17,8;18,4;18,2;18,1;-27,9;28,3;1436
2021-08-02 20:00:00;13,2;100923;88;0,0083;0,0;0,4;307;1,1;0,25;-0,34;0;0;0;26,5;27,8;30,7;33,9;17,3;18,2;18,2;18,1;-27,8;28,5;1373
2021-08-02 21:00:00;12,2;100918;91;0,008;0,0;0,5;319;0,9;0,31;-0,32;0;0;0;26,4;27,8;30,7;33,9;17,1;18,0;18,2;18,1;-27,7;28,5;1409
2021-08-02 22:00:00;10,7;100920;94;0,0075;0,0;0,2;98;0,5;0,19;0,03;0;0;0;26,4;27,8;30,7;33,9;16,6;17,8;18,2;18,1;-27,6;28,2;1503
2021-08-02 23:00:00;10,3;100897;95;0,0074;0,0;0,3;20;0,6;0,25;0,11;0;0;0;26,3;27,8;30,7;33,9;16,2;17,6;18,1;18,1;-27,4;28,3;1412
2021-08-03 00:00:00;10,7;100878;95;0,0075;0,0;0,3;180;0,6;0,24;0,01;0;0;0;26,2;27,9;30,7;33,9;15,9;17,4;18,1;18,1;-27,3;28,3;1425
2021-08-03 01:00:00;11,2;100855;96;0,0079;0,0;0,3;102;0,6;0,28;0,06;0;0;0;26,2;27,9;30,8;33,9;15,9;17,2;18,0;18,1;-27,2;28,6;1534
2021-08-03 02:00:00;11,8;100818;97;0,0083;0,0;0,3;27;0,8;0,3;0,16;0;0;0;26,1;27,9;30,8;33,9;15,8;17,1;18,0;18,1;-27,1;28,6;1433
2021-08-03 03:00:00;12,2;100790;97;0,0086;0,16;0,5;33;1,0;0,4;0,26;0;0;0;26,1;27,9;30,8;33,9;15,8;16,9;17,9;18,1;-27,0;28,8;1386
2021-08-03 04:00:00;12,4;100765;98;0,0088;0,0;0,7;34;1,4;0,58;0,41;2;0;0;26,1;27,9;30,8;33,9;15,9;16,9;17,8;18,1;-26,8;29,1;1495
2021-08-03 05:00:00;12,6;100752;98;0,0089;0,22;0,8;36;1,7;0,61;0,46;21;0;0;26,0;27,9;30,8;33,8;15,9;16,8;17,7;18,1;-26,7;29,5;1390
2021-08-03 06:00:00;13,1;100715;100;0,0093;0,61;0,7;36;1,8;0,58;0,43;60;0;0;26,1;27,9;30,8;33,8;16,0;16,8;17,7;18,1;-26,6;29,5;1433
2021-08-03 07:00:00;13,5;100727;98;0,0094;0,1;0,8;34;1,5;0,65;0,44;49;0;0;26,3;27,9;30,8;33,8;16,1;16,8;17,6;18,1;-26,5;29,4;1447
2021-08-03 08:00:00;13,7;100722;97;0,0095;0,64;1,2;38;2,4;0,94;0,75;52;0;0;26,4;27,9;30,8;33,8;16,2;16,8;17,6;18,0;-26,4;29,6;1434
2021-08-03 09:00:00;14,0;100667;98;0,0097;2,57;1,4;43;2,8;1,06;0,99;104;0;0;27,7;28,0;30,8;33,8;16,2;16,8;17,5;18,0;-26,4;29,4;1463
2021-08-03 10:00:00;14,8;100662;99;0,0104;0,47;1,4;40;2,8;1,05;0,89;215;0;0;29,5;28,3;30,8;33,8;16,4;16,8;17,5;18,0;-26,2;29,5;1447
2021-08-03 11:00:00;16,2;100633;97;0,011;0,0;1,4;42;3,2;1,06;0,96;309;0;0;29,4;28,8;30,9;33,8;16,9;16,8;17,4;18,0;-26,1;29,9;1405
2021-08-03 12:00:00;17,9;100558;92;0,0117;0,2;1,6;44;3,4;1,1;1,09;355;0;0;29,2;29,3;30,9;33,8;17,4;17,0;17,4;18,0;-26,1;29,9;1379
2021-08-03 13:00:00;17,0;100562;92;0,0111;1,35;1,2;44;2,5;0,82;0,81;253;5;7;29,7;29,7;30,9;33,8;17,5;17,2;17,4;18,0;-26,0;30,1;1425
2021-08-03 14:00:00;16,0;100583;94;0,0106;2,61;1,0;46;2,4;0,68;0,76;94;0;0;30,3;30,3;30,9;33,8;17,7;17,3;17,4;17,9;-25,8;30,7;1418
2021-08-03 15:00:00;16,5;100573;97;0,0112;0,07;0,9;45;2,2;0,64;0,62;269;0;0;31,6;31,2;30,9;33,8;17,7;17,4;17,4;17,9;-25,7;30,3;1377
2021-08-03 16:00:00;17,6;100550;90;0,0113;0,0;0,9;118;2,0;0,67;0,48;266;0;0;31,0;31,8;30,9;33,8;17,9;17,5;17,5;17,9;-25,4;30,4;1331
2021-08-03 17:00:00;17,4;100568;88;0,0108;0,0;0,6;296;1,7;0,25;-0,5;93;0;0;30,6;31,9;31,0;33,8;17,8;17,6;17,5;17,9;-25,1;30,8;1421
2021-08-03 18:00:00;16,5;100602;90;0,0105;0,0;0,6;301;1,9;0,29;-0,48;46;0;0;30,2;31,9;31,1;33,8;17,7;17,6;17,5;17,9;-24,5;30,8;1383
2021-08-03 19:00:00;15,1;100637;92;0,0098;0,0;0,3;325;0,8;0,22;-0,18;6;0;0;30,0;31,9;31,1;33,8;17,4;17,6;17,6;17,8;-23,7;30,8;1363
2021-08-03 20:00:00;14,7;100680;94;0,0097;0,0;0,5;304;1,0;0,31;-0,44;0;0;0;29,8;31,8;31,3;33,8;17,2;17,6;17,6;17,8;-22,9;31,0;1428
2021-08-03 21:00:00;14,8;100708;94;0,0098;0,0;0,6;303;1,4;0,34;-0,52;0;0;0;29,6;31,8;31,4;33,8;17,0;17,5;17,6;17,8;-22,0;31,0;1379
2021-08-03 22:00:00;14,0;100722;95;0,0095;0,0;0,4;320;1,1;0,3;-0,29;0;0;0;29,5;31,8;31,5;33,8;16,9;17,4;17,6;17,8;-21,0;31,3;1409
2021-08-03 23:00:00;13,0;100717;96;0,0089;0,0;0,3;119;0,9;0,27;-0,03;0;0;0;29,3;31,7;31,6;33,8;16,6;17,3;17,6;17,8;-20,2;31,3;1406
2021-08-04 00:00:00;12,1;100728;96;0,0084;0,0;0,3;334;0,8;0,26;-0,14;0;0;0;29,2;31,7;31,7;33,8;16,3;17,2;17,6;17,8;-19,6;31,2;1380
2021-08-04 01:00:00;11,8;100722;96;0,0082;0,04;0,6;305;1,0;0,33;-0,46;0;0;0;29,1;31,7;31,8;33,8;16,1;17,1;17,5;17,8;-19,1;31,0;1381
2021-08-04 02:00:00;11,6;100710;98;0,0082;0,02;0,3;334;0,7;0,22;-0,16;0;0;0;29,0;31,6;31,9;33,8;15,9;16,9;17,5;17,8;-18,6;31,2;1545
2021-08-04 03:00:00;11,0;100727;96;0,0078;0,02;0,4;307;0,7;0,25;-0,33;0;0;0;28,9;31,6;32,0;33,8;15,7;16,8;17,5;17,8;-18,3;31,1;1376
2021-08-04 04:00:00;11,1;100730;96;0,0079;0,04;0,5;308;0,9;0,3;-0,39;10;0;0;28,8;31,6;32,1;33,8;15,6;16,7;17,4;17,8;-18,0;31,1;1390
2021-08-04 05:00:00;11,9;100740;99;0,0085;0,02;0,3;312;0,6;0,22;-0,24;51;0;0;28,8;31,5;32,1;33,8;15,6;16,5;17,4;17,8;-17,8;30,8;1387
2021-08-04 06:00:00;13,2;100773;100;0,0094;0,0;0,5;305;1,3;0,3;-0,42;94;0;0;28,7;31,5;32,2;33,8;15,8;16,5;17,3;17,8;-17,5;30,7;1396
2021-08-04 07:00:00;14,5;100770;98;0,01;0,0;0,4;307;1,0;0,24;-0,31;141;0;0;28,7;31,5;32,2;33,8;16,1;16,5;17,3;17,7;-17,4;30,4;1376
2021-08-04 08:00:00;16,5;100745;93;0,0108;0,0;0,5;178;1,4;0,32;-0,03;316;0;0;28,6;31,4;32,3;33,8;16,6;16,6;17,2;17,7;-17,3;30,1;1416
2021-08-04 09:00:00;18,7;100705;85;0,0114;0,0;0,8;51;2,5;0,48;0,58;427;0;0;28,5;31,4;32,3;33,8;17,6;16,8;17,2;17,7;-17,3;30,2;1356
2021-08-04 10:00:00;20,3;100688;76;0,0113;0,0;0,8;111;2,6;0,64;0,34;512;0;0;28,4;31,3;32,3;33,8;18,6;17,1;17,1;17,7;-17,4;30,2;1429
2021-08-04 11:00:00;21,5;100640;68;0,0108;0,0;0,7;205;1,9;0,32;-0,23;541;0;0;28,2;31,2;32,3;33,8;19,4;17,6;17,2;17,7;-17,4;30,2;1411
2021-08-04 12:00:00;22,4;100605;62;0,0105;0,0;0,8;115;2,5;0,52;0,34;453;0;0;28,1;31,1;32,3;33,8;19,5;18,0;17,2;17,7;-17,5;30,2;1428
2021-08-04 13:00:00;22,8;100572;56;0,0098;0,0;0,7;177;2,6;0,42;0,06;363;0;0;28,0;31,1;32,3;33,8;19,5;18,2;17,3;17,7;-17,6;29,8;1385
2021-08-04 14:00:00;23,1;100550;57;0,01;0,0;0,6;200;1,7;0,16;-0,36;337;0;0;27,8;31,0;32,3;33,8;19,4;18,4;17,4;17,6;-17,7;29,6;1429
2021-08-04 15:00:00;22,9;100540;57;0,0099;0,0;0,7;47;2,3;0,44;0,5;143;0;0;27,7;30,9;32,3;33,8;19,4;18,5;17,5;17,6;-17,7;29,9;1390
2021-08-04 16:00:00;21,1;100525;66;0,0102;0,0;0,3;253;1,3;0,12;-0,03;66;0;0;27,7;30,9;32,3;33,8;19,2;18,6;17,6;17,6;-17,7;29,6;1438
2021-08-04 17:00:00;19,2;100535;74;0,0103;0,32;0,7;178;2,1;0,32;-0,06;15;0;0;27,6;30,9;32,3;33,8;19,0;18,6;17,7;17,6;-17,7;29,4;1474
2021-08-04 18:00:00;17,2;100573;85;0,0104;0,0;0,6;314;1,3;0,35;-0,43;13;0;0;27,7;30,8;32,3;33,8;18,7;18,5;17,8;17,6;-17,7;29,2;1493
2021-08-04 19:00:00;16,4;100610;90;0,0104;0,0;0,4;183;1,2;0,35;0,08;1;0;0;27,7;30,8;32,3;33,8;18,4;18,5;17,8;17,6;-17,7;29,0;1436
2021-08-04 20:00:00;15,5;100620;92;0,01;0,0;0,4;314;0,9;0,25;-0,28;0;0;0;27,6;30,8;32,3;33,8;18,2;18,4;17,9;17,6;-17,7;29,0;1421
2021-08-04 21:00:00;14,6;100625;92;0,0095;0,0;0,4;234;0,8;0,26;-0,26;0;0;0;27,6;30,8;32,3;33,8;17,8;18,3;17,9;17,6;-17,7;29,2;1385
2021-08-04 22:00:00;15,0;100620;94;0,0099;0,0;0,3;130;0,9;0,3;0,08;0;0;0;27,6;30,8;32,3;33,8;17,6;18,1;17,9;17,6;-17,8;29,1;1389
2021-08-04 23:00:00;14,8;100615;96;0,01;0,0;0,3;174;0,6;0,27;-0,02;0;0;0;27,5;30,8;32,3;33,8;17,5;18,0;17,9;17,6;-17,8;29,2;1404
2021-08-05 00:00:00;14,9;100580;95;0,01;0,0;0,3;336;0,6;0,26;-0,12;0;0;0;27,5;30,8;32,3;33,8;17,4;17,9;17,9;17,7;-17,8;29,2;1510
2021-08-05 01:00:00;14,9;100538;95;0,01;0,0;0,3;89;0,6;0,26;-0,03;0;0;0;27,5;30,7;32,3;33,8;17,3;17,8;17,9;17,7;-17,8;29,4;1434
2021-08-05 02:00:00;14,5;100500;95;0,0097;0,0;0,3;129;0,7;0,27;0,05;0;0;0;27,5;30,7;32,3;33,9;17,2;17,7;17,9;17,7;-17,8;29,3;1445
2021-08-05 03:00:00;14,2;100460;96;0,0097;0,0;0,3;106;0,7;0,28;0,1;0;0;0;27,4;30,7;32,3;33,9;17,0;17,6;17,8;17,7;-17,9;29,3;1457
2021-08-05 04:00:00;14,2;100432;97;0,0097;0,0;0,3;177;0,6;0,26;-0,01;5;0;0;27,4;30,7;32,3;33,9;16,9;17,6;17,8;17,7;-17,9;29,3;1473
2021-08-05 05:00:00;14,8;100418;98;0,0102;0,02;0,4;111;1,0;0,38;0,18;49;0;0;27,4;30,6;32,3;33,9;16,9;17,5;17,8;17,7;-17,9;29,5;1458
2021-08-05 06:00:00;15,7;100430;96;0,0106;0,09;0,4;25;1,2;0,4;0,19;50;0;0;27,4;30,6;32,3;33,9;17,1;17,4;17,7;17,7;-17,9;29,6;1497
2021-08-05 07:00:00;16,4;100428;93;0,0108;0,0;0,6;32;1,3;0,53;0,35;120;0;0;27,4;30,6;32,3;33,9;17,2;17,4;17,7;17,7;-17,9;29,5;1386
2021-08-05 08:00:00;17,7;100388;88;0,011;0,0;0,6;36;1,7;0,46;0,34;182;0;0;27,3;30,6;32,3;33,9;17,5;17,5;17,7;17,7;-18,0;29,7;1403
2021-08-05 09:00:00;20,0;100337;80;0,0116;0,0;0,7;120;1,9;0,55;0,3;368;0;0;27,3;30,6;32,3;33,9;18,1;17,6;17,6;17,7;-18,1;29,9;1412
2021-08-05 10:00:00;21,3;100283;73;0,0114;0,0;0,7;46;2,4;0,47;0,5;453;0;0;27,2;30,5;32,3;33,9;18,8;17,8;17,6;17,7;-18,3;29,9;1456
2021-08-05 11:00:00;21,3;100248;70;0,0111;0,76;1,0;43;3,0;0,6;0,7;331;1;4;27,2;30,4;32,3;33,9;19,4;18,1;17,6;17,7;-18,5;30,0;1429
2021-08-05 12:00:00;21,8;100175;73;0,0118;0,99;0,8;106;2,3;0,38;0,3;696;0;0;27,9;30,5;32,3;33,9;19,5;18,3;17,7;17,7;-18,5;29,9;1408
2021-08-05 13:00:00;22,2;100128;64;0,0108;0,02;1,2;43;3,1;0,83;0,8;292;0;0;28,0;30,5;32,2;33,9;19,6;18,5;17,7;17,7;-18,6;30,2;1431
2021-08-05 14:00:00;17,9;100143;93;0,0119;0,81;0,6;218;1,7;0,22;-0,09;367;0;0;29,3;30,7;32,2;33,9;19,3;18,7;17,8;17,7;-18,6;30,3;1446
2021-08-05 15:00:00;20,7;100080;77;0,0117;0,59;0,9;45;2,4;0,62;0,64;234;0;0;29,6;31,0;32,3;33,9;19,3;18,7;17,9;17,7;-18,4;30,5;1443
2021-08-05 16:00:00;22,0;100010;68;0,0113;0,29;1,1;51;2,7;0,68;0,83;323;0;0;29,4;31,2;32,3;33,9;19,3;18,7;17,9;17,7;-18,3;30,8;1436
2021-08-05 17:00:00;21,9;99975;68;0,0111;0,0;0,9;59;2,4;0,46;0,72;161;0;0;29,2;31,3;32,3;33,9;19,2;18,8;18,0;17,7;-18,1;30,9;1483
2021-08-05 18:00:00;20,7;99950;69;0,0106;0,0;1,0;44;2,4;0,75;0,73;47;0;0;29,0;31,3;32,4;33,9;19,0;18,8;18,1;17,7;-17,9;31,2;1592
2021-08-05 19:00:00;18,9;99958;78;0,0107;0,0;0,5;41;1,2;0,35;0,32;4;0;0;28,9;31,3;32,4;33,9;18,8;18,7;18,1;17,7;-17,6;31,6;1451
2021-08-05 20:00:00;18,4;99958;80;0,0105;0,0;0,5;174;1,5;0,44;-0,03;0;0;0;28,8;31,3;32,5;33,9;18,5;18,7;18,1;17,7;-17,4;31,5;1443
2021-08-05 21:00:00;18,2;99948;83;0,0108;0,0;0,5;97;1,3;0,38;0,09;0;0;0;28,7;31,3;32,5;33,9;18,4;18,6;18,2;17,7;-17,3;31,5;1425
2021-08-05 22:00:00;17,3;99930;86;0,0106;0,0;0,3;28;0,9;0,27;0,15;0;0;0;28,6;31,3;32,5;33,9;18,3;18,5;18,2;17,7;-17,2;31,5;1436
2021-08-05 23:00:00;16,6;99890;90;0,0106;0,0;0,5;36;1,1;0,42;0,34;0;0;0;28,5;31,3;32,5;33,9;18,1;18,4;18,2;17,7;-17,1;31,6;1540
2021-08-06 00:00:00;16,2;99832;91;0,0105;0,0;0,3;31;1,0;0,28;0,18;0;0;0;28,5;31,3;32,6;33,9;17,9;18,3;18,2;17,7;-17,0;31,6;1902
2021-08-06 01:00:00;17,0;99807;88;0,0106;0,0;0,7;44;1,6;0,48;0,49;0;0;0;28,4;31,3;32,6;33,9;17,9;18,2;18,1;17,8;-16,9;31,6;1472
2021-08-06 02:00:00;17,0;99752;88;0,0106;0,08;0,9;38;2,0;0,72;0,58;0;0;0;28,4;31,2;32,6;33,9;17,9;18,2;18,1;17,8;-16,9;31,4;1456
2021-08-06 03:00:00;16,4;99740;91;0,0106;0,14;1,0;42;2,0;0,74;0,68;0;0;0;28,4;31,2;32,6;33,9;17,8;18,1;18,1;17,8;-16,9;31,4;1446
2021-08-06 04:00:00;16,0;99710;92;0,0105;0,1;1,2;41;2,3;0,87;0,78;3;0;0;28,4;31,2;32,6;33,9;17,7;18,1;18,1;17,8;-16,8;31,3;1516
2021-08-06 05:00:00;16,1;99713;94;0,0108;0,09;0,9;37;1,8;0,72;0,56;25;0;0;28,6;31,2;32,6;33,9;17,6;18,0;18,1;17,8;-16,8;31,4;1465
2021-08-06 06:00:00;16,3;99730;95;0,011;0,14;0,6;104;1,7;0,44;0,17;50;0;0;29,4;31,4;32,6;33,9;17,7;18,0;18,0;17,8;-16,8;31,4;1463
2021-08-06 07:00:00;17,0;99738;94;0,0115;0,14;0,6;20;1,7;0,53;0,21;149;0;0;29,5;31,6;32,7;33,9;17,8;17,9;18,0;17,8;-16,7;31,7;1469
2021-08-06 08:00:00;19,2;99752;89;0,0124;0,16;0,7;180;1,9;0,52;0,04;244;0;0;29,4;31,7;32,7;33,9;18,2;18,0;18,0;17,8;-16,6;31,7;1477
2021-08-06 09:00:00;18,8;99767;88;0,012;0,09;1,1;296;2,8;0,47;-0,95;333;1;2;29,3;31,7;32,7;33,9;18,4;18,1;18,0;17,8;-16,3;31,7;1455
2021-08-06 10:00:00;20,8;99745;80;0,0124;0,14;1,2;296;4,1;0,51;-1,05;584;0;0;29,2;31,7;32,8;33,9;19,0;18,2;18,0;17,8;-16,2;31,6;1478
2021-08-06 11:00:00;21,1;99760;72;0,0113;0,1;1,7;292;4,7;0,64;-1,58;459;0;0;29,0;31,7;32,8;33,9;19,4;18,4;18,0;17,8;-16,2;30,9;1497
2021-08-06 12:00:00;21,1;99782;68;0,0106;0,09;1,7;293;4,1;0,68;-1,55;334;0;0;28,9;31,6;32,8;33,9;19,4;18,6;18,0;17,8;-16,1;31,0;1463
2021-08-06 13:00:00;21,2;99790;66;0,0104;0,04;2,1;294;4,6;0,88;-1,9;263;0;0;28,7;31,6;32,8;33,9;19,3;18,7;18,0;17,8;-16,1;31,1;1503
2021-08-06 14:00:00;21,3;99805;64;0,0101;0,08;2,0;293;5,0;0,81;-1,81;296;0;0;28,6;31,5;32,8;33,9;19,2;18,7;18,1;17,8;-16,2;31,1;1520
2021-08-06 15:00:00;22,0;99820;63;0,0105;0,04;1,8;290;4,2;0,63;-1,62;360;0;0;28,4;31,4;32,8;33,9;19,2;18,8;18,1;17,8;-16,2;30,9;1509
2021-08-06 16:00:00;21,6;99847;63;0,0102;0,04;1,7;293;4,4;0,66;-1,54;237;0;0;28,3;31,4;32,8;33,9;19,2;18,8;18,2;17,8;-16,3;30,8;1412
2021-08-06 17:00:00;20,5;99872;66;0,01;0,02;1,5;294;3,7;0,61;-1,33;122;0;0;28,2;31,3;32,8;33,9;18,9;18,8;18,2;17,8;-16,3;30,8;1537
2021-08-06 18:00:00;19,6;99905;69;0,0098;0,04;1,1;292;2,9;0,44;-1,05;23;0;0;28,2;31,3;32,8;33,9;18,7;18,8;18,2;17,8;-16,3;30,8;1513
2021-08-06 19:00:00;18,9;99950;71;0,0097;0,02;1,3;295;3,0;0,54;-1,16;1;0;0;28,1;31,3;32,8;33,9;18,5;18,7;18,3;17,8;-16,3;30,8;1450
2021-08-06 20:00:00;17,9;99973;75;0,0096;0,02;0,7;312;1,9;0,49;-0,53;0;0;0;28,0;31,2;32,8;33,9;18,3;18,6;18,2;17,8;-16,4;30,5;1459
2021-08-06 21:00:00;16,4;99998;80;0,0093;0,02;0,5;295;1,2;0,18;-0,4;0;0;0;28,0;31,2;32,8;33,9;18,1;18,5;18,3;17,8;-16,4;30,6;1492
2021-08-06 22:00:00;16,2;99978;82;0,0094;0,0;0,4;299;1,2;0,18;-0,37;0;0;0;28,0;31,2;32,8;33,9;17,9;18,4;18,3;17,8;-16,4;30,9;1655
2021-08-06 23:00:00;15,9;99965;83;0,0094;0,02;0,3;254;1,0;0,28;-0,1;0;0;0;27,9;31,2;32,8;33,9;17,7;18,3;18,2;17,8;-16,4;30,8;1517
2021-08-07 00:00:00;15,7;99967;85;0,0095;0,0;0,4;238;1,2;0,33;-0,02;0;0;0;27,9;31,1;32,8;34,0;17,6;18,2;18,2;17,9;-16,5;30,8;1478
2021-08-07 01:00:00;14,3;99970;89;0,009;0,0;0,5;113;1,2;0,4;0,23;0;0;0;27,9;31,1;32,8;34,0;17,3;18,1;18,2;17,9;-16,5;30,7;1460
2021-08-07 02:00:00;13,2;99940;91;0,0086;0,0;0,4;94;0,8;0,32;0,08;0;0;0;27,8;31,1;32,7;34,0;17,1;17,9;18,2;17,9;-16,5;30,9;1545
2021-08-07 03:00:00;14,0;99885;90;0,009;0,0;0,6;35;1,4;0,4;0,36;0;0;0;27,8;31,1;32,7;34,0;16,9;17,8;18,1;17,9;-16,6;30,9;1480
2021-08-07 04:00:00;14,6;99870;90;0,0093;0,0;0,7;28;1,5;0,58;0,33;3;0;0;27,8;31,0;32,7;34,0;16,9;17,7;18,1;17,9;-16,6;31,1;1503
2021-08-07 05:00:00;15,0;99828;90;0,0096;0,0;1,1;36;2,0;0,86;0,64;31;0;0;27,8;31,0;32,7;34,0;16,9;17,6;18,0;17,9;-16,7;30,9;1460
2021-08-07 06:00:00;16,0;99820;88;0,01;0,0;0,7;172;1,9;0,56;0,11;80;0;0;27,7;31,0;32,7;34,0;17,0;17,5;18,0;17,9;-16,7;30,9;1454
2021-08-07 07:00:00;17,6;99797;83;0,0105;0,0;0,7;305;2,3;0,37;-0,59;143;0;0;27,7;31,0;32,7;34,0;17,3;17,5;17,9;17,9;-16,8;31,0;1562
2021-08-07 08:00:00;18,7;99770;80;0,0107;0,0;0,6;318;2,4;0,42;-0,4;222;0;0;27,6;30,9;32,7;34,0;17,6;17,6;17,9;17,9;-16,8;30,7;1465
2021-08-07 09:00:00;20,3;99708;72;0,0107;0,0;1,1;290;3,5;0,38;-1,04;402;0;0;27,6;30,8;32,7;34,0;18,1;17,7;17,8;17,9;-17,0;30,6;1407
2021-08-07 10:00:00;20,5;99688;66;0,01;0,0;1,3;282;4,1;0,34;-1,26;297;0;0;27,4;30,8;32,6;34,0;18,5;17,9;17,8;17,9;-17,3;30,4;1517
2021-08-07 11:00:00;17,7;99703;75;0,0096;0,0;1,6;301;3,5;0,83;-1,41;203;0;0;27,3;30,7;32,6;34,0;18,5;18,0;17,8;17,9;-17,4;30,8;1542
2021-08-07 12:00:00;21,3;99612;64;0,0102;0,0;1,1;287;2,9;0,32;-1,0;628;0;0;27,2;30,6;32,6;34,0;18,7;18,1;17,8;17,8;-17,5;30,6;1544
2021-08-07 13:00:00;22,9;99545;53;0,0094;0,0;1,2;290;3,3;0,43;-1,14;557;0;0;27,1;30,6;32,6;34,0;18,8;18,2;17,9;17,8;-17,8;30,5;1461
2021-08-07 14:00:00;22,2;99552;53;0,0089;0,0;0,9;290;2,8;0,31;-0,86;265;0;0;27,0;30,5;32,5;34,0;18,9;18,4;17,9;17,8;-17,9;30,4;1574
2021-08-07 15:00:00;22,0;99533;56;0,0094;0,0;0,9;296;2,6;0,37;-0,75;233;0;0;26,9;30,4;32,5;33,9;19,0;18,4;17,9;17,8;-18,0;30,5;1516
2021-08-07 16:00:00;22,0;99502;56;0,0094;0,0;1,1;262;3,7;-0,14;-1,04;196;0;0;26,8;30,4;32,5;33,9;18,9;18,5;18,0;17,8;-18,2;30,4;1525
2021-08-07 17:00:00;20,9;99542;60;0,0092;0,0;1,0;286;3,4;0,26;-0,95;63;0;0;26,8;30,3;32,5;33,9;18,8;18,5;18,0;17,8;-18,2;30,3;1568
2021-08-07 18:00:00;19,3;99595;68;0,0095;0,0;0,6;300;1,9;0,18;-0,45;5;0;0;26,7;30,3;32,5;33,9;18,5;18,5;18,0;17,8;-18,2;30,1;1513
2021-08-07 19:00:00;17,2;99637;79;0,0098;0,0;0,7;300;1,9;0,34;-0,57;4;0;0;26,7;30,3;32,5;33,9;18,3;18,4;18,1;17,8;-18,2;30,0;1588
2021-08-07 20:00:00;16,5;99722;78;0,0092;0,02;0,9;284;2,5;0,24;-0,85;0;0;0;26,8;30,3;32,5;33,9;18,0;18,4;18,1;17,8;-18,2;30,2;1514
2021-08-07 21:00:00;16,2;99798;78;0,009;0,0;1,1;297;2,4;0,5;-0,95;0;0;0;26,7;30,3;32,5;33,9;17,8;18,2;18,1;17,8;-18,3;30,0;1567
2021-08-07 22:00:00;16,0;99857;78;0,0088;0,02;1,2;295;2,9;0,52;-1,05;0;0;0;26,7;30,3;32,4;33,9;17,5;18,1;18,1;17,8;-18,3;29,6;1535
2021-08-07 23:00:00;15,8;99902;80;0,009;0,02;0,9;299;2,7;0,45;-0,82;0;0;0;26,7;30,2;32,4;33,9;17,4;18,0;18,1;17,8;-18,3;29,6;1587
2021-08-08 00:00:00;16,3;99940;77;0,0089;0,0;1,6;294;3,5;0,7;-1,48;0;0;0;26,7;30,2;32,4;33,9;17,2;17,9;18,0;17,8;-18,3;29,6;1488
2021-08-08 01:00:00;15,9;99975;78;0,0088;0,02;1,2;296;3,0;0,54;-1,12;0;0;0;26,7;30,2;32,4;33,9;17,1;17,8;18,0;17,8;-18,4;29,6;1507
2021-08-08 02:00:00;15,5;100000;79;0,0087;0,0;0,9;302;2,1;0,49;-0,79;0;0;0;26,7;30,2;32,4;33,9;17,0;17,7;18,0;17,8;-18,4;29,6;1501
2021-08-08 03:00:00;15,3;100057;78;0,0085;0,02;0,9;299;2,0;0,46;-0,82;0;0;0;26,7;30,2;32,4;33,9;16,9;17,6;17,9;17,8;-18,5;29,6;1494
2021-08-08 04:00:00;14,6;100112;81;0,0084;0,0;0,4;171;1,2;0,36;-0,06;8;0;0;26,6;30,1;32,4;33,9;16,8;17,5;17,9;17,8;-18,5;29,6;1515
2021-08-08 05:00:00;15,2;100182;81;0,0087;0,02;0,6;300;1,6;0,31;-0,53;62;0;0;26,6;30,1;32,4;33,9;16,7;17,4;17,9;17,8;-18,6;29,5;1490
2021-08-08 06:00:00;16,4;100217;75;0,0087;0,0;1,6;298;4,2;0,74;-1,38;151;0;0;26,6;30,1;32,4;33,9;16,7;17,4;17,8;17,8;-18,6;29,5;1475
2021-08-08 07:00:00;17,6;100242;71;0,0088;0,0;1,6;297;4,4;0,74;-1,43;284;0;0;26,5;30,0;32,4;33,9;16,9;17,3;17,8;17,8;-18,8;29,4;1458
2021-08-08 08:00:00;18,3;100275;65;0,0086;0,0;2,0;294;4,7;0,83;-1,87;448;0;0;26,4;30,0;32,3;33,9;17,3;17,3;17,7;17,8;-19,0;29,5;1498